Date,TemperatureHighF,TemperatureAvgF,TemperatureLowF,DewpointHighF,DewpointAvgF,DewpointLowF,HumidityHigh,HumidityAvg,HumidityLow,PressureMaxIn,PressureMinIn,WindSpeedMaxMPH,WindSpeedAvgMPH,GustSpeedMaxMPH,PrecipitationSumIn
2013-2-1,71,61,52,51,42,36,61,50,36,30.16,30.09,0,0,1,0.00
2013-2-2,72,64,56,53,42,37,64,46,31,30.18,30.09,0,0,2,0.00
2013-2-3,74,62,52,49,46,37,78,57,27,30.14,29.97,0,0,1,0.00
2013-2-4,68,55,48,54,48,42,96,79,60,30.08,29.97,0,0,1,0.01
2013-2-5,55,52,50,51,50,49,97,93,84,30.09,29.98,0,0,1,0.00
2013-2-6,59,51,45,50,47,44,98,87,72,30.11,30.00,0,0,1,0.00
2013-2-7,57,49,43,50,46,42,98,87,74,30.14,29.98,1,0,1,0.01
2013-2-8,51,45,40,45,40,36,94,83,67,29.98,29.86,1,0,2,0.00
2013-2-9,54,45,36,42,37,33,92,74,53,30.11,29.93,0,0,2,0.00
2013-2-10,54,46,39,44,41,37,97,83,62,30.11,30.01,1,0,2,0.00
2013-2-11,59,48,40,43,37,22,91,69,24,30.24,30.06,1,0,2,0.01
2013-2-12,60,48,38,42,32,23,78,57,26,30.35,30.24,3,0,3,0.00
2013-2-13,64,51,42,43,36,29,77,57,31,30.26,30.14,0,0,3,0.00
2013-2-14,69,55,43,48,38,34,77,55,29,30.20,30.06,1,0,2,0.00
2013-2-15,75,60,52,41,34,25,50,39,18,30.18,30.12,1,0,2,0.00
2013-2-16,58,57,57,24,24,24,28,28,27,30.16,30.15,0,0,0,0.00
2013-2-17,64,55,47,50,40,24,89,59,27,30.01,29.91,0,0,1,0.00
2013-2-18,59,52,50,48,46,45,87,80,61,30.05,29.94,0,0,1,0.00
2013-2-19,51,48,42,46,43,41,95,83,74,29.97,29.71,0,0,1,0.00
2013-2-20,57,47,39,41,32,26,95,57,32,29.99,29.69,0,0,6,0.00
2013-2-21,57,50,48,32,30,26,54,48,32,29.99,29.82,0,0,3,0.00
2013-2-22,48,48,48,32,32,32,53,53,53,29.99,29.97,0,0,1,0.00
2013-2-23,60,51,41,47,39,34,85,65,44,30.16,29.92,0,0,2,0.00
2013-2-24,63,55,46,36,24,2,50,32,12,30.18,29.99,0,0,3,0.00
2013-2-25,48,47,46,26,25,23,44,41,39,30.18,30.14,0,0,0,0.00
2013-2-26,68,52,40,44,36,27,92,57,31,30.12,29.99,0,0,1,0.00
2013-2-27,71,59,48,40,25,15,53,29,16,30.26,30.12,0,0,1,0.00
2013-2-28,74,60,48,35,23,16,38,25,15,30.31,30.24,0,0,2,0.00